CST,Max TemperatureF,Mean TemperatureF,Min TemperatureF,Max Dew PointF,MeanDew PointF,Min DewpointF,Max Humidity, Mean Humidity, Min Humidity, Max Sea Level PressureIn, Mean Sea Level PressureIn, Min Sea Level PressureIn, Max VisibilityMiles, Mean VisibilityMiles, Min VisibilityMiles, Max Wind SpeedMPH, Mean Wind SpeedMPH, Max Gust SpeedMPH,PrecipitationIn, CloudCover, Events, WindDirDegrees
2012-11-1,88,70,52,53,48,44,83,46,22,30.04,29.97,29.91,10,10,10,8,3,,0.00,0,,222
2012-11-2,87,78,68,57,52,44,68,45,24,29.99,29.93,29.88,10,10,10,9,7,17,0.00,0,,199
2012-11-3,84,74,63,64,60,55,90,66,46,30.09,30.02,29.94,10,10,10,18,7,26,0.00,2,Thunderstorm,127
2012-11-4,75,64,54,47,44,41,69,51,34,30.14,30.08,30.04,10,10,10,8,4,,0.00,0,,345
2012-11-5,75,63,51,51,41,30,86,51,25,30.10,30.05,30.00,10,10,10,16,4,24,0.00,0,,343
2012-11-6,73,59,45,44,39,36,74,51,29,30.17,30.10,30.04,10,10,10,6,4,,0.00,0,,335
2012-11-7,75,62,50,45,39,32,77,47,23,30.19,30.12,30.07,10,10,10,10,3,,0.00,0,,98
2012-11-8,81,66,52,58,50,38,73,57,39,30.11,30.03,29.96,10,10,10,17,9,31,0.00,0,,158
2012-11-9,82,72,62,61,57,51,88,64,39,30.03,29.98,29.90,10,10,10,17,12,38,0.00,2,,172
2012-11-10,80,72,64,62,59,57,88,66,47,29.99,29.92,29.82,10,10,9,18,13,32,0.00,4,,164
2012-11-11,75,62,45,64,54,35,81,71,64,30.25,29.95,29.75,10,10,9,24,13,39,0.01,6,Rain,300
2012-11-12,57,46,36,32,22,15,67,43,19,30.51,30.44,30.28,10,9,3,14,8,21,0.00,0,,9
2012-11-13,57,45,33,30,25,20,75,56,23,30.52,30.46,30.35,10,6,0,12,2,,0.00,1,,108
2012-11-14,63,51,39,33,29,25,68,45,24,30.44,30.35,30.29,10,10,10,8,3,,0.00,1,,118
2012-11-15,64,52,39,33,31,28,73,48,27,30.34,30.29,30.22,10,10,10,10,5,,0.00,0,,128
2012-11-16,66,52,37,35,31,28,77,52,26,30.42,30.36,30.32,10,10,10,7,3,,0.00,0,,76
2012-11-17,64,52,39,32,29,27,68,45,25,30.42,30.34,30.29,10,10,10,9,3,,0.00,0,,133
2012-11-18,69,54,39,39,35,31,77,49,29,30.31,30.25,30.19,10,10,10,14,5,22,0.00,0,,148
2012-11-19,72,64,55,53,46,35,72,54,40,30.22,30.17,30.11,10,10,10,10,7,22,0.00,4,,169
2012-11-20,80,66,52,56,52,49,89,67,36,30.19,30.15,30.10,10,10,8,4,1,,0.00,0,,88
2012-11-21,80,66,51,57,49,44,93,61,32,30.27,30.18,30.11,10,10,6,10,2,,0.00,0,,150
2012-11-22,75,64,52,56,48,44,74,56,37,30.12,30.07,30.00,10,10,5,15,6,29,0.01,1,Rain,168
2012-11-23,68,60,45,52,34,20,83,43,19,30.42,30.31,30.09,10,10,10,23,8,33,0.00,3,,20
2012-11-24,60,47,34,24,21,18,61,35,20,30.43,30.29,30.10,10,10,10,8,5,,0.00,0,,129
2012-11-25,75,58,42,53,37,23,70,43,29,30.09,29.94,29.84,10,10,10,14,8,24,0.00,0,,167
2012-11-26,75,62,48,59,50,34,90,67,29,30.25,29.98,29.85,10,10,8,22,9,37,0.00,2,,259
2012-11-27,53,47,39,37,33,27,83,62,46,30.44,30.34,30.25,10,10,10,16,11,23,0.00,4,,325
2012-11-28,64,48,33,40,36,31,92,62,34,30.44,30.34,30.26,10,9,7,12,5,18,0.00,0,,153
2012-11-29,68,54,39,48,39,34,86,59,33,30.25,30.18,30.10,10,10,8,14,7,22,0.00,0,,154
2012-11-30,73,64,54,60,56,48,90,78,57,30.15,30.08,30.02,10,8,5,13,7,21,0.00,4,,163